Location: Pinon Hills
(34.4429°N, 117.6403°W)
Time: 16:37:07
(UTC-07:00)

Uosat F - Visible Passes

Search period start: 22 July 2014 00:00
Search period end: 01 August 2014 00:00
Orbit: 752 x 762 km, 98.7° (Epoch: 21 July)

Date Brightness Start Highest point End Pass type
(mag) Time Alt. Az. Time Alt. Az. Time Alt. Az.
22 Jul 11.3 05:02:48 10° NNE 05:07:50 76° ESE 05:12:50 10° S visible
23 Jul 12.8 04:24:17 10° NE 04:28:39 29° E 04:32:57 10° SSE visible
24 Jul 13.9 03:47:55 10° ENE 03:49:14 11° E 03:50:34 10° ESE visible
24 Jul 11.1 05:23:26 10° N 05:28:25 66° WNW 05:33:21 10° SSW visible
25 Jul 12.0 04:44:29 10° NNE 04:49:20 48° E 04:54:08 10° S visible
26 Jul 13.5 04:06:33 10° NE 04:10:02 19° E 04:13:29 10° SE visible
27 Jul 11.2 05:04:55 10° NNE 05:09:57 79° ESE 05:14:57 10° S visible
28 Jul 12.8 04:26:22 10° NE 04:30:46 30° E 04:35:07 10° SSE visible
29 Jul 13.8 03:49:45 10° ENE 03:51:22 11° E 03:52:58 10° ESE visible
29 Jul 11.1 05:25:33 10° N 05:30:31 64° WNW 05:35:27 10° SSW visible
30 Jul 11.9 04:46:34 10° NNE 04:51:27 49° E 04:56:16 10° S visible
31 Jul 13.4 04:08:35 10° NE 04:12:09 19° E 04:15:41 10° SE visible
